Location: Pinawa
(50.1500°N, 95.8830°W)
Time: 17:13:18
(UTC-06:00)

Amateur Radio Satellites - All Passes

Search period start: 30 January 2015 16:43
Search period end: 31 January 2015 16:43
Location: Pinawa, 50.1500°N, 95.8830°W

Satellite Date Start Highest point End Downlink Frequencies (MHz)
Time Altitude Azimuth
CUSAT 1 30 Jan 16:54:33 16:58:25 17° 283° (WNW) 17:01:34 437.405
STARS 30 Jan 16:55:12 16:58:37 21° 299° (WNW) 17:01:55 437.465
CUTE-I 30 Jan 16:59:53 17:04:52 43° 66° (ENE) 17:09:57 437.470
M-CUBED/EXP-1 PRIME 30 Jan 17:01:01 17:04:03 33° 297° (WNW) 17:07:07 437.505
KKS-1 30 Jan 17:05:41 17:08:00 14° 304° (NW) 17:10:09 437.445
AO-7 30 Jan 17:15:34 17:22:13 25° 272° (W) 17:28:38 29.400- 29.500
MOZHAYETS 4 30 Jan 17:16:33 17:21:06 64° 101° (E) 17:25:38
JAS-2 30 Jan 17:24:29 17:28:55 25° 268° (W) 17:33:08 435.910
AUBIESAT-1 30 Jan 17:33:33 17:35:55 18° 302° (WNW) 17:38:16 437.475
CUBESAT XI-V 30 Jan 17:38:29 17:39:34 11° 83° (E) 17:40:55 437.345
HO-68 30 Jan 17:42:17 17:45:59 15° 42° (NE) 17:49:56 435.675
SO-50 30 Jan 17:51:33 17:56:21 51° 42° (NE) 18:01:11 436.795
O/OREOS (USA 219) 30 Jan 18:01:06 18:04:52 25° 313° (NW) 18:08:37 437.305
STRAND 1 30 Jan 18:19:05 18:22:44 20° 89° (E) 18:26:31 437.568
YUBILEINY 30 Jan 18:20:15 18:26:40 25° 79° (ENE) 18:33:24 435.215
Cubesat XI-IV 30 Jan 18:20:17 18:25:24 46° 262° (W) 18:30:33 437.490
GOMX 1 30 Jan 18:23:27 18:25:28 12° 51° (NE) 18:27:44 467.674
DOVE 4 30 Jan 18:30:03 18:30:40 10° 49° (NE) 18:31:32 437.250
BRITE-PL 30 Jan 18:33:51 18:37:29 19° 56° (NE) 18:41:23 437.365/2234.400
PRISM 30 Jan 18:37:58 18:41:59 46° 99° (E) 18:46:01 437.425
CUTE-I 30 Jan 18:40:20 18:45:07 33° 265° (W) 18:49:55 437.470
MOZHAYETS 4 30 Jan 18:54:39 18:57:58 20° 300° (WNW) 19:01:10
COMPASS 1 30 Jan 18:58:51 19:00:32 12° 57° (ENE) 19:02:22 437.405
CUBESAT XI-V 30 Jan 19:13:13 19:17:55 78° 102° (ESE) 19:22:39 437.345
CANX-2 30 Jan 19:15:47 19:19:15 25° 64° (ENE) 19:22:46 2200.000
AAUSAT CUBESAT 2 30 Jan 19:22:40 19:25:27 18° 61° (ENE) 19:28:20 437.432
HO-68 30 Jan 19:25:27 19:32:18 53° 64° (ENE) 19:39:13 435.675
SO-50 30 Jan 19:32:23 19:36:48 33° 241° (WSW) 19:41:10 436.795
CINEMA 3 30 Jan 19:39:06 19:42:45 21° 60° (ENE) 19:46:32 145.822/145.860
CUTE 1.7 + AOD 2 30 Jan 19:39:09 19:43:04 36° 68° (ENE) 19:47:02 437.475
UWE-3 30 Jan 19:42:49 19:44:35 12° 55° (NE) 19:46:33 435.000/436.395/437.385
Oscar 11 30 Jan 19:47:25 19:50:16 18° 60° (ENE) 19:53:14 145.826/435.025
STRAND 1 30 Jan 19:57:21 20:02:30 69° 289° (WNW) 20:07:37 437.568
GOMX 1 30 Jan 19:57:26 20:02:32 58° 71° (ENE) 20:07:56 467.674
DOVE 4 30 Jan 20:02:21 20:07:18 49° 69° (ENE) 20:12:27 437.250
SEEDS 30 Jan 20:07:15 20:11:27 58° 72° (ENE) 20:15:37 437.485
BRITE-PL 30 Jan 20:10:04 20:15:17 87° 253° (WSW) 20:20:55 437.365/2234.400
YUBILEINY 30 Jan 20:13:50 20:22:33 86° 280° (W) 20:31:21 435.215
PRISM 30 Jan 20:14:03 20:17:17 22° 297° (WNW) 20:20:28 437.425
UKube-1 30 Jan 20:23:00 20:26:26 24° 62° (ENE) 20:29:57 .
COMPASS 1 30 Jan 20:31:25 20:35:39 85° 77° (ENE) 20:39:54 437.405
HUMSAT D 30 Jan 20:32:23 20:34:52 15° 59° (ENE) 20:37:29 437.325/437.525
CUBEBUG 2 30 Jan 20:39:26 20:43:52 39° 67° (ENE) 20:48:20 437.445
ZACube-1 30 Jan 20:40:23 20:44:22 30° 65° (ENE) 20:48:23 437.345
DELFI C3 30 Jan 20:42:47 20:46:37 42° 69° (ENE) 20:50:30 145.870
DX 1 30 Jan 20:45:04 20:49:05 38° 67° (ENE) 20:53:10 434.975-435.025
CANX-2 30 Jan 20:50:55 20:55:01 42° 262° (W) 20:59:07 2200.000
FUNcube-1 30 Jan 20:51:30 20:55:42 36° 67° (ENE) 20:59:56 145.935
CUBESAT XI-V 30 Jan 20:51:47 20:54:53 17° 301° (WNW) 20:57:51 437.345
AAUSAT CUBESAT 2 30 Jan 20:56:35 21:00:45 61° 259° (W) 21:04:56 437.432
HO-68 30 Jan 21:13:38 21:20:17 39° 264° (W) 21:26:54 435.675
CINEMA 3 30 Jan 21:14:31 21:19:30 70° 259° (W) 21:24:35 145.822/145.860
CUTE 1.7 + AOD 2 30 Jan 21:15:23 21:19:07 27° 267° (W) 21:22:47 437.475
UWE-3 30 Jan 21:15:42 21:20:23 70° 73° (ENE) 21:25:05 435.000/436.395/437.385
AISAT 30 Jan 21:17:29 21:21:27 33° 66° (ENE) 21:25:31 437.250
Oscar 11 30 Jan 21:21:43 21:26:02 66° 258° (WSW) 21:30:23 145.826/435.025
ESTCUBE 1 30 Jan 21:26:28 21:29:44 21° 61° (ENE) 21:33:06 437.505/2401.250
50 SAT 30 Jan 21:27:21 21:31:05 34° 68° (ENE) 21:34:52 437.505
GOMX 1 30 Jan 21:36:46 21:41:05 25° 271° (W) 21:45:28 467.674
STRAND 1 30 Jan 21:38:19 21:40:54 14° 308° (NW) 21:43:16 437.568
DOVE 4 30 Jan 21:40:48 21:45:18 29° 269° (W) 21:49:53 437.250
VELOX 1 30 Jan 21:44:25 21:48:45 56° 71° (ENE) 21:53:10 145.980
SEEDS 30 Jan 21:44:47 21:47:41 17° 271° (W) 21:50:28 437.485
CUBEBUG 1 30 Jan 21:48:23 21:52:06 28° 64° (ENE) 21:55:53 437.445
ISS 30 Jan 21:50:10 21:52:49 23° 144° (SE) 21:55:31 145.825
BRITE-PL 30 Jan 21:51:41 21:54:48 15° 278° (W) 21:57:48 437.365/2234.400
UKube-1 30 Jan 21:58:12 22:02:23 46° 261° (W) 22:06:36 .
TISAT 1 30 Jan 22:01:03 22:02:30 12° 56° (NE) 22:04:06 437.305
HUMSAT D 30 Jan 22:05:47 22:10:10 79° 258° (WSW) 22:14:33 437.325/437.525
COMPASS 1 30 Jan 22:10:27 22:12:04 12° 275° (W) 22:13:29 437.405
AIST 1 30 Jan 22:10:30 22:14:50 62° 77° (ENE) 22:19:10
YUBILEINY 30 Jan 22:14:01 22:20:56 24° 306° (NW) 22:27:39 435.215
POPSAT HIP 1 30 Jan 22:15:38 22:17:42 13° 86° (E) 22:19:57 437.405
ZACube-1 30 Jan 22:16:17 22:20:38 40° 263° (W) 22:24:59 437.345
CUBEBUG 2 30 Jan 22:16:23 22:20:39 31° 266° (W) 22:24:54 437.445
DUCHIFAT 1 30 Jan 22:17:12 22:19:21 14° 87° (E) 22:21:41 145.980
UNISAT 6 30 Jan 22:18:30 22:22:04 23° 91° (E) 22:25:37 437.425
DELFI C3 30 Jan 22:18:52 22:22:05 21° 268° (W) 22:25:13 145.870
DX 1 30 Jan 22:21:41 22:25:27 27° 266° (W) 22:29:12 434.975-435.025
FUNcube-1 30 Jan 22:27:57 22:32:06 32° 266° (W) 22:36:14 145.935
NANOSAT C BR1 30 Jan 22:51:04 22:54:49 29° 94° (E) 22:58:36 145.865
AISAT 30 Jan 22:54:02 22:58:06 33° 265° (W) 23:02:10 437.250
ANTELSAT 30 Jan 22:54:10 22:58:33 49° 99° (E) 23:02:48 437.575/2403.000
UWE-3 30 Jan 22:54:18 22:57:28 17° 273° (W) 23:00:30 435.000/436.395/437.385
CINEMA 3 30 Jan 22:56:25 22:57:46 11° 279° (W) 22:58:48 145.822/145.860
TIGRISAT 30 Jan 23:00:51 23:05:18 56° 100° (E) 23:09:36 435.000
ESTCUBE 1 30 Jan 23:01:51 23:06:16 58° 259° (W) 23:10:44 437.505/2401.250
SPROUT 30 Jan 23:02:34 23:06:36 39° 68° (ENE) 23:10:41 437.525
50 SAT 30 Jan 23:02:39 23:06:16 28° 266° (W) 23:09:50 437.505
QB50P2 30 Jan 23:06:12 23:10:19 41° 98° (E) 23:14:23 145.880/145.840
SWISSCUBE 30 Jan 23:12:11 23:14:27 14° 55° (NE) 23:16:54 437.505
QB50P1 30 Jan 23:14:51 23:19:04 49° 99° (E) 23:23:15 145.935-145.965
BUGSAT 1 30 Jan 23:17:31 23:21:36 41° 98° (E) 23:25:40 437.445
VELOX 1 30 Jan 23:22:28 23:25:44 19° 270° (W) 23:28:55 145.980
CUBEBUG 1 30 Jan 23:24:19 23:28:23 37° 263° (W) 23:32:30 437.445
ISS 30 Jan 23:25:43 23:29:01 84° 163° (SSE) 23:32:20 145.825
BEESAT 30 Jan 23:26:50 23:29:46 17° 57° (ENE) 23:32:50 436.000
POLYITAN 1 30 Jan 23:30:47 23:35:09 71° 103° (ESE) 23:39:27 437.675
ITUPSAT 1 30 Jan 23:31:37 23:34:45 18° 58° (ENE) 23:37:59 437.325
TISAT 1 30 Jan 23:33:24 23:37:39 77° 74° (ENE) 23:41:57 437.305
AIST 1 30 Jan 23:49:21 23:52:05 16° 275° (W) 23:54:39
POPSAT HIP 1 30 Jan 23:49:54 23:54:14 77° 286° (WNW) 23:58:32 437.405
DUCHIFAT 1 30 Jan 23:51:29 23:55:49 75° 287° (WNW) 00:00:06 145.980
UNISAT 6 30 Jan 23:54:50 23:59:08 45° 291° (WNW) 00:03:18 437.425
GONETS M04 31 Jan 00:22:01 00:29:18 32° 82° (E) 00:36:46
NANOSAT C BR1 31 Jan 00:26:49 00:30:46 35° 293° (WNW) 00:34:39 145.865
ANTELSAT 31 Jan 00:31:32 00:35:05 23° 298° (WNW) 00:38:29 437.575/2403.000
Oscar 19 31 Jan 00:36:28 00:38:55 14° 84° (E) 00:41:36 437.125/150
TIGRISAT 31 Jan 00:38:21 00:41:43 21° 299° (WNW) 00:44:56 435.000
SPROUT 31 Jan 00:39:11 00:42:50 26° 267° (W) 00:46:29 437.525
QB50P2 31 Jan 00:42:28 00:46:05 26° 296° (WNW) 00:49:36 145.880/145.840
STARS 31 Jan 00:45:53 00:48:04 14° 56° (ENE) 00:50:25 437.465
SWISSCUBE 31 Jan 00:46:53 00:51:37 78° 74° (ENE) 00:56:25 437.505
O/OREOS (USA 219) 31 Jan 00:46:54 00:51:08 35° 52° (NE) 00:55:23 437.305
QB50P1 31 Jan 00:51:20 00:54:43 22° 298° (WNW) 00:58:00 145.935-145.965
BUGSAT 1 31 Jan 00:53:22 00:56:57 25° 296° (WNW) 01:00:27 437.445
KKS-1 31 Jan 00:54:51 00:58:17 22° 62° (ENE) 01:01:49 437.445
BEESAT 31 Jan 01:02:19 01:07:05 83° 257° (WSW) 01:11:53 436.000
ISS 31 Jan 01:02:19 01:05:36 65° 2° (N) 01:08:55 145.825
ITUPSAT 1 31 Jan 01:07:23 01:12:09 77° 257° (WSW) 01:16:57 437.325
POLYITAN 1 31 Jan 01:07:49 01:10:38 17° 301° (WNW) 01:13:17 437.675
TISAT 1 31 Jan 01:11:57 01:14:07 13° 274° (W) 01:16:06 437.305
AUBIESAT-1 31 Jan 01:18:03 01:20:16 16° 57° (ENE) 01:22:30 437.475
POPSAT HIP 1 31 Jan 01:27:47 01:29:28 12° 304° (NW) 01:30:58 437.405
DUCHIFAT 1 31 Jan 01:29:26 01:30:59 12° 305° (NW) 01:32:21 145.980
Gurwin Techsat 1B 31 Jan 02:03:18 02:07:17 22° 89° (E) 02:11:24 435.225
BEESAT 2 31 Jan 02:10:26 02:14:12 35° 120° (ESE) 02:18:04 435.950
Oscar 19 31 Jan 02:13:59 02:19:11 86° 108° (ESE) 02:24:20 437.125/150
GONETS M04 31 Jan 02:16:51 02:25:36 70° 284° (WNW) 02:34:20
AIST 2 31 Jan 02:16:54 02:19:59 20° 115° (ESE) 02:23:13 435.215
M-CUBED/EXP-1 PRIME 31 Jan 02:19:27 02:23:18 69° 68° (ENE) 02:26:53 437.505
STARS 31 Jan 02:19:28 02:23:56 86° 75° (ENE) 02:28:26 437.465
BEESAT 3 31 Jan 02:22:20 02:26:20 50° 123° (ESE) 02:30:23 437.485
DANDE 31 Jan 02:24:00 02:27:52 15° 75° (ENE) 02:32:14 436.750
O/OREOS (USA 219) 31 Jan 02:26:22 02:30:35 35° 252° (WSW) 02:34:44 437.305
SWISSCUBE 31 Jan 02:27:17 02:30:10 15° 273° (W) 02:32:53 437.505
KKS-1 31 Jan 02:30:15 02:34:39 53° 260° (W) 02:39:06 437.445
HORYU 2 31 Jan 02:33:12 02:34:26 11° 84° (E) 02:35:54 437.375
ITAMSAT 1 31 Jan 02:34:12 02:39:18 51° 99° (E) 02:44:25 435.822/435.867
ISS 31 Jan 02:38:52 02:42:09 65° 203° (SSW) 02:45:25 145.825
CUSAT 1 31 Jan 02:40:47 02:46:27 21° 81° (E) 02:52:20 437.405
BEESAT 31 Jan 02:43:54 02:45:49 12° 276° (W) 02:47:30 436.000
MOZHAYETS 4 31 Jan 02:48:12 02:50:53 16° 58° (ENE) 02:53:43
ITUPSAT 1 31 Jan 02:49:39 02:51:01 11° 277° (W) 02:52:06 437.325
AUBIESAT-1 31 Jan 02:51:08 02:54:57 59° 252° (WSW) 02:58:29 437.475
PCSat 31 Jan 03:09:55 03:12:51 15° 106° (ESE) 03:16:00 145.827
AO-7 31 Jan 03:17:09 03:23:10 22° 87° (E) 03:29:28 29.400- 29.500
Gurwin Techsat 1B 31 Jan 03:42:31 03:47:48 65° 289° (WNW) 03:53:04 435.225
BEESAT 2 31 Jan 03:48:30 03:52:25 38° 320° (NW) 03:56:23 435.950
AIST 2 31 Jan 03:54:00 03:58:15 64° 314° (NW) 04:02:34 435.215
Oscar 19 31 Jan 03:54:28 03:57:57 18° 304° (NW) 04:01:16 437.125/150
M-CUBED/EXP-1 PRIME 31 Jan 03:57:02 03:58:42 12° 264° (W) 04:00:10 437.505
STARS 31 Jan 03:59:05 04:01:09 13° 275° (W) 04:03:01 437.465
BEESAT 3 31 Jan 04:00:59 04:04:41 30° 324° (NW) 04:08:23 437.485
DANDE 31 Jan 04:01:41 04:09:53 56° 94° (E) 04:18:07 436.750
HORYU 2 31 Jan 04:07:26 04:11:56 86° 106° (ESE) 04:16:22 437.375
ITAMSAT 1 31 Jan 04:14:08 04:18:37 29° 299° (WNW) 04:23:01 435.822/435.867
ISS 31 Jan 04:16:04 04:18:11 16° 220° (SW) 04:20:15 145.825
GONETS M04 31 Jan 04:18:22 04:24:31 20° 311° (NW) 04:30:19
RS-15 31 Jan 04:18:31 04:28:12 40° 111° (ESE) 04:38:10 29.354- 29.394
CUSAT 1 31 Jan 04:20:09 04:28:34 77° 99° (E) 04:36:42 437.405
YUBILEINY 31 Jan 04:22:22 04:27:45 18° 47° (NE) 04:33:29 435.215
MOZHAYETS 4 31 Jan 04:23:00 04:27:36 82° 256° (WSW) 04:32:13
JAS-2 31 Jan 04:25:43 04:30:41 31° 94° (E) 04:36:13 435.910
CUBESAT XI-V 31 Jan 04:45:36 04:48:49 19° 60° (ENE) 04:52:10 437.345
PCSat 31 Jan 04:50:06 04:55:32 82° 126° (SE) 05:01:01 145.827
AO-7 31 Jan 05:08:54 05:17:19 86° 108° (ESE) 05:25:40 29.400- 29.500
CUTE-I 31 Jan 05:14:23 05:15:59 11° 82° (E) 05:17:53 437.470
Gurwin Techsat 1B 31 Jan 05:24:19 05:26:54 13° 308° (NW) 05:29:17 435.225
BEESAT 2 31 Jan 05:29:30 05:31:46 14° 343° (NNW) 05:34:00 435.950
PRISM 31 Jan 05:32:55 05:36:59 65° 72° (ENE) 05:41:06 437.425
AIST 2 31 Jan 05:34:37 05:37:41 18° 336° (NNW) 05:40:44 435.215
STRAND 1 31 Jan 05:39:11 05:44:00 44° 67° (ENE) 05:48:53 437.568
BEESAT 3 31 Jan 05:42:15 05:44:06 12° 347° (NNW) 05:45:55 437.485
DANDE 31 Jan 05:45:23 05:53:38 47° 294° (WNW) 06:01:38 436.750
HORYU 2 31 Jan 05:45:28 05:48:02 15° 303° (WNW) 05:50:28 437.375
MOZHAYETS 4 31 Jan 06:04:16 06:05:42 11° 277° (W) 06:06:53
CUSAT 1 31 Jan 06:04:49 06:12:22 33° 299° (WNW) 06:19:26 437.405
JAS-2 31 Jan 06:10:40 06:16:04 51° 291° (WNW) 06:22:03 435.910
YUBILEINY 31 Jan 06:18:11 06:26:53 63° 73° (ENE) 06:35:38 435.215
CUBESAT XI-V 31 Jan 06:21:17 06:25:52 65° 259° (WSW) 06:30:31 437.345
RS-15 31 Jan 06:28:59 06:39:55 75° 316° (NW) 06:51:06 29.354- 29.394
Cubesat XI-IV 31 Jan 06:32:29 06:37:43 50° 99° (E) 06:42:58 437.490
PCSat 31 Jan 06:34:59 06:39:36 27° 326° (NNW) 06:44:13 145.827
CUTE-I 31 Jan 06:51:48 06:57:12 71° 103° (ESE) 07:02:34 437.470
AO-7 31 Jan 07:02:22 07:09:23 31° 311° (NW) 07:16:12 29.400- 29.500
BEESAT 2 31 Jan 07:10:18 07:11:42 11° 7° (N) 07:13:07 435.950
PRISM 31 Jan 07:10:37 07:13:01 15° 271° (W) 07:15:18 437.425
AIST 2 31 Jan 07:16:26 07:17:56 12° 359° (N) 07:19:27 435.215
STRAND 1 31 Jan 07:18:54 07:23:24 30° 266° (W) 07:27:52 437.568
BEESAT 3 31 Jan 07:22:17 07:23:58 12° 11° (N) 07:25:40 437.485
DANDE 31 Jan 07:34:41 07:39:27 15° 317° (NW) 07:43:42 436.750
GOMX 1 31 Jan 07:56:32 07:59:18 14° 82° (E) 08:02:15 467.674
CUSAT 1 31 Jan 07:57:35 07:58:11 10° 323° (NW) 07:58:21 437.405
JAS-2 31 Jan 07:58:44 08:00:13 11° 311° (NW) 08:01:28 435.910
DOVE 4 31 Jan 08:00:23 08:01:01 10° 79° (E) 08:01:58 437.250
BRITE-PL 31 Jan 08:10:53 08:15:36 27° 89° (E) 08:20:15 437.365/2234.400
Cubesat XI-IV 31 Jan 08:12:58 08:17:38 30° 298° (WNW) 08:22:14 437.490
COMPASS 1 31 Jan 08:13:37 08:14:03 10° 84° (E) 08:14:41 437.405
YUBILEINY 31 Jan 08:15:33 08:23:22 36° 276° (W) 08:31:02 435.215
PCSat 31 Jan 08:22:08 08:24:55 14° 352° (N) 08:27:40 145.827
ANTELSAT 31 Jan 08:23:46 08:25:57 14° 56° (NE) 08:28:17 437.575/2403.000
TIGRISAT 31 Jan 08:29:49 08:32:19 15° 57° (ENE) 08:34:58 435.000
CANX-2 31 Jan 08:32:04 08:35:30 24° 92° (E) 08:38:58 2200.000
CUTE-I 31 Jan 08:32:41 08:36:50 23° 302° (WNW) 08:40:53 437.470
HO-68 31 Jan 08:35:30 08:41:53 34° 94° (E) 08:48:19 435.675
AAUSAT CUBESAT 2 31 Jan 08:36:28 08:39:00 16° 88° (E) 08:41:38 437.432
QB50P1 31 Jan 08:40:23 08:41:11 11° 55° (NE) 08:42:10 145.935-145.965
RS-15 31 Jan 08:44:07 08:54:20 41° 347° (NNW) 09:04:50 29.354- 29.394
BEESAT 2 31 Jan 08:48:02 08:51:22 22° 30° (NNE) 08:54:44 435.950
VERMONT LUNAR 31 Jan 08:48:30 08:50:01 12° 164° (SSE) 08:51:35 437.305
POLYITAN 1 31 Jan 08:54:59 08:57:17 15° 58° (ENE) 08:59:45 437.675
AIST 2 31 Jan 08:55:16 08:58:13 18° 23° (NNE) 09:01:11 435.215
CUTE 1.7 + AOD 2 31 Jan 08:55:35 08:59:31 37° 96° (E) 09:03:27 437.475
AO-7 31 Jan 08:56:57 08:59:33 12° 337° (NNW) 09:01:56 29.400- 29.500
BEESAT 3 31 Jan 08:59:49 09:03:26 27° 34° (NE) 09:07:02 437.485
UWE-3 31 Jan 09:04:23 09:05:01 10° 82° (E) 09:05:55 435.000/436.395/437.385
Oscar 11 31 Jan 09:05:31 09:08:16 17° 88° (E) 09:11:07 145.826/435.025
CINEMA 3 31 Jan 09:05:57 09:09:45 23° 89° (E) 09:13:30 145.822/145.860
POPSAT HIP 1 31 Jan 09:12:52 09:15:58 20° 61° (ENE) 09:19:10 437.405
DUCHIFAT 1 31 Jan 09:14:10 09:17:16 20° 61° (ENE) 09:20:29 145.980
UNISAT 6 31 Jan 09:21:37 09:25:58 38° 67° (ENE) 09:30:18 437.425
SEEDS 31 Jan 09:23:00 09:27:11 60° 101° (E) 09:31:19 437.485
GOMX 1 31 Jan 09:32:53 09:38:24 84° 102° (ESE) 09:43:38 467.674
DOVE 4 31 Jan 09:34:44 09:40:00 67° 101° (ESE) 09:44:58 437.250
UKube-1 31 Jan 09:41:46 09:45:05 21° 91° (E) 09:48:30 .
COMPASS 1 31 Jan 09:46:20 09:50:33 87° 102° (ESE) 09:54:43 437.405
HUMSAT D 31 Jan 09:47:33 09:49:25 13° 86° (E) 09:51:26 437.325/437.525
NANOSAT C BR1 31 Jan 09:48:12 09:52:12 40° 68° (ENE) 09:56:16 145.865
BRITE-PL 31 Jan 09:48:53 09:54:30 58° 290° (WNW) 09:59:53 437.365/2234.400
SO-50 31 Jan 09:51:16 09:55:12 29° 117° (ESE) 09:59:18 436.795
DELFI C3 31 Jan 09:53:31 09:57:19 38° 97° (E) 10:01:07 145.870
ANTELSAT 31 Jan 09:57:22 10:02:05 78° 73° (ENE) 10:06:46 437.575/2403.000
PHONESAT 2.4 31 Jan 09:59:40 10:01:57 16° 170° (S) 10:04:16 2401.200-2431.200
ZACube-1 31 Jan 10:00:42 10:04:37 30° 94° (E) 10:08:28 437.345
CUBEBUG 2 31 Jan 10:02:45 10:07:10 43° 97° (E) 10:11:25 437.445
QB50P2 31 Jan 10:03:36 10:07:49 57° 71° (ENE) 10:12:04 145.880/145.840
TIGRISAT 31 Jan 10:03:45 10:08:29 87° 72° (ENE) 10:13:11 435.000
DX 1 31 Jan 10:04:49 10:08:53 36° 97° (E) 10:12:58 434.975-435.025
PCSat 31 Jan 10:07:16 10:10:36 16° 17° (NNE) 10:14:00 145.827
CANX-2 31 Jan 10:07:39 10:11:38 40° 291° (WNW) 10:15:34 2200.000
AAUSAT CUBESAT 2 31 Jan 10:11:00 10:15:08 60° 287° (WNW) 10:19:12 437.432
FUNcube-1 31 Jan 10:11:45 10:15:54 37° 96° (E) 10:19:56 145.935
QB50P1 31 Jan 10:12:04 10:16:19 68° 74° (ENE) 10:20:38 145.935-145.965
BUGSAT 1 31 Jan 10:12:10 10:16:10 53° 71° (ENE) 10:20:17 437.445
HO-68 31 Jan 10:23:00 10:30:02 60° 295° (WNW) 10:37:02 435.675
VERMONT LUNAR 31 Jan 10:24:59 10:27:21 17° 181° (S) 10:29:43 437.305
GONETS M04 31 Jan 10:25:05 10:31:22 22° 52° (NE) 10:37:55
BEESAT 2 31 Jan 10:25:53 10:30:07 82° 232° (SW) 10:34:16 435.950
POLYITAN 1 31 Jan 10:28:22 10:32:41 84° 256° (WSW) 10:37:04 437.675
CUTE 1.7 + AOD 2 31 Jan 10:31:46 10:35:22 27° 295° (WNW) 10:38:54 437.475
AIST 2 31 Jan 10:33:25 10:37:42 59° 45° (NE) 10:41:55 435.215
50 SAT 31 Jan 10:37:11 10:40:43 29° 94° (E) 10:44:16 437.505
BEESAT 3 31 Jan 10:37:46 10:41:53 58° 235° (SW) 10:45:55 437.485
UWE-3 31 Jan 10:37:56 10:42:31 80° 103° (ESE) 10:46:54 435.000/436.395/437.385
AISAT 31 Jan 10:40:04 10:44:12 34° 96° (E) 10:48:21 437.250
Oscar 11 31 Jan 10:40:38 10:44:55 61° 288° (WNW) 10:49:10 145.826/435.025
CINEMA 3 31 Jan 10:42:34 10:47:20 53° 290° (WNW) 10:51:53 145.822/145.860
AIST 1 31 Jan 10:45:27 10:49:03 28° 90° (E) 10:52:45
POPSAT HIP 1 31 Jan 10:47:18 10:51:33 56° 260° (W) 10:55:48 437.405
DUCHIFAT 1 31 Jan 10:48:36 10:52:49 54° 260° (W) 10:57:03 145.980
ESTCUBE 1 31 Jan 10:50:32 10:54:00 22° 91° (E) 10:57:33 437.505/2401.250
UNISAT 6 31 Jan 10:58:38 11:02:50 31° 266° (W) 11:06:59 437.425
RS-15 31 Jan 10:59:26 11:09:55 44° 20° (NNE) 11:20:51 29.354- 29.394
SEEDS 31 Jan 10:59:44 11:02:39 18° 299° (WNW) 11:05:27 437.485
VELOX 1 31 Jan 11:06:56 11:11:24 60° 101° (E) 11:15:50 145.980
CUBEBUG 1 31 Jan 11:08:34 11:12:28 29° 94° (E) 11:16:23 437.445
GOMX 1 31 Jan 11:11:59 11:15:53 20° 303° (WNW) 11:19:32 467.674
DOVE 4 31 Jan 11:13:14 11:17:18 23° 301° (WNW) 11:21:08 437.250
UKube-1 31 Jan 11:17:19 11:21:34 49° 290° (WNW) 11:25:46 .
HUMSAT D 31 Jan 11:21:35 11:25:52 77° 286° (WNW) 11:30:03 437.325/437.525
COMPASS 1 31 Jan 11:23:39 11:25:43 13° 302° (WNW) 11:27:37 437.405
NANOSAT C BR1 31 Jan 11:24:38 11:28:15 25° 267° (W) 11:31:49 145.865
DELFI C3 31 Jan 11:29:06 11:32:26 24° 295° (WNW) 11:35:41 145.870
BRITE-PL 31 Jan 11:29:19 11:31:57 13° 309° (NW) 11:34:19 437.365/2234.400
SO-50 31 Jan 11:30:58 11:35:32 53° 318° (NW) 11:40:16 436.795
ANTELSAT 31 Jan 11:36:41 11:39:31 15° 273° (W) 11:42:09 437.575/2403.000
ZACube-1 31 Jan 11:36:59 11:41:03 35° 293° (WNW) 11:44:59 437.345
PHONESAT 2.4 31 Jan 11:37:21 11:39:46 17° 187° (S) 11:42:11 2401.200-2431.200
CUBEBUG 2 31 Jan 11:39:49 11:43:42 26° 297° (WNW) 11:47:22 437.445
QB50P2 31 Jan 11:41:07 11:44:09 18° 271° (W) 11:47:05 145.880/145.840
DX 1 31 Jan 11:41:13 11:45:05 30° 296° (WNW) 11:48:54 434.975-435.025
TIGRISAT 31 Jan 11:43:30 11:45:57 14° 275° (W) 11:48:11 435.000
FUNcube-1 31 Jan 11:48:19 11:52:10 28° 295° (WNW) 11:55:51 145.935
BUGSAT 1 31 Jan 11:49:07 11:52:04 18° 270° (W) 11:54:56 437.445
QB50P1 31 Jan 11:50:09 11:52:46 15° 272° (W) 11:55:15 145.935-145.965
PCSat 31 Jan 11:50:25 11:55:32 40° 42° (NE) 12:00:40 145.827
Gurwin Techsat 1B 31 Jan 11:53:42 11:54:52 11° 49° (NE) 11:56:16 435.225
Oscar 19 31 Jan 11:57:01 12:01:35 33° 64° (ENE) 12:06:13 437.125/150
VERMONT LUNAR 31 Jan 12:03:18 12:04:40 12° 197° (SSW) 12:05:59 437.305
BEESAT 2 31 Jan 12:06:04 12:07:42 12° 249° (WSW) 12:09:09 435.950
POLYITAN 1 31 Jan 12:08:27 12:09:27 10° 276° (W) 12:10:12 437.675
HO-68 31 Jan 12:12:06 12:16:30 17° 316° (NW) 12:20:42 435.675
50 SAT 31 Jan 12:12:14 12:15:52 31° 293° (WNW) 12:19:25 437.505
AIST 2 31 Jan 12:12:39 12:16:00 22° 245° (WSW) 12:19:14 435.215
UWE-3 31 Jan 12:15:44 12:18:29 16° 302° (WNW) 12:21:06 435.000/436.395/437.385
AISAT 31 Jan 12:16:46 12:20:49 32° 295° (WNW) 12:24:49 437.250
ITAMSAT 1 31 Jan 12:19:14 12:23:04 22° 58° (ENE) 12:27:03 435.822/435.867
SPROUT 31 Jan 12:20:34 12:24:42 40° 97° (E) 12:28:49 437.525
GONETS M04 31 Jan 12:21:15 12:30:00 78° 78° (ENE) 12:38:43
AIST 1 31 Jan 12:22:48 12:26:41 33° 289° (WNW) 12:30:34
ESTCUBE 1 31 Jan 12:26:47 12:31:12 51° 290° (WNW) 12:35:36 437.505/2401.250
AO-7 31 Jan 12:32:58 12:37:37 17° 34° (NE) 12:42:32 29.400- 29.500
SWISSCUBE 31 Jan 12:44:04 12:46:37 15° 86° (E) 12:49:21 437.505
VELOX 1 31 Jan 12:44:17 12:47:38 20° 300° (WNW) 12:50:53 145.980
CUBEBUG 1 31 Jan 12:44:49 12:48:56 37° 293° (WNW) 12:53:01 437.445
TISAT 1 31 Jan 12:49:28 12:53:47 75° 103° (ESE) 12:58:05 437.305
BEESAT 31 Jan 12:58:53 13:02:08 18° 89° (E) 13:05:31 436.000
HUMSAT D 31 Jan 12:59:28 13:00:59 11° 304° (NW) 13:02:19 437.325/437.525
DANDE 31 Jan 12:59:59 13:03:13 14° 41° (NE) 13:06:21 436.750
ITUPSAT 1 31 Jan 13:04:08 13:07:37 20° 90° (E) 13:11:13 437.325
RS-15 31 Jan 13:12:36 13:23:56 86° 49° (NE) 13:35:47 29.354- 29.394
SO-50 31 Jan 13:13:42 13:17:09 19° 341° (NNW) 13:20:37 436.795
CUSAT 1 31 Jan 13:16:12 13:20:13 17° 47° (NE) 13:23:50 437.405
Gurwin Techsat 1B 31 Jan 13:28:40 13:33:47 52° 69° (ENE) 13:38:58 435.225
PCSat 31 Jan 13:33:54 13:39:05 46° 243° (WSW) 13:44:13 145.827
HORYU 2 31 Jan 13:35:13 13:38:29 21° 61° (ENE) 13:41:52 437.375
Oscar 19 31 Jan 13:35:55 13:40:52 43° 263° (W) 13:45:49 437.125/150
ITAMSAT 1 31 Jan 13:56:58 14:02:09 70° 257° (WSW) 14:07:22 435.822/435.867
SPROUT 31 Jan 13:56:59 14:00:39 26° 296° (WNW) 14:04:15 437.525
STARS 31 Jan 14:06:55 14:08:31 12° 85° (E) 14:10:21 437.465
KKS-1 31 Jan 14:17:22 14:20:51 22° 91° (E) 14:24:24 437.445
GONETS M04 31 Jan 14:19:01 14:26:04 28° 280° (W) 14:32:55
SWISSCUBE 31 Jan 14:20:23 14:25:12 83° 285° (WNW) 14:30:00 437.505
AO-7 31 Jan 14:20:44 14:28:35 48° 58° (ENE) 14:36:32 29.400- 29.500
TISAT 1 31 Jan 14:26:28 14:29:08 16° 301° (WNW) 14:31:40 437.305
BEESAT 31 Jan 14:35:45 14:40:31 66° 288° (WNW) 14:45:15 436.000
ITUPSAT 1 31 Jan 14:41:14 14:45:59 60° 289° (WNW) 14:50:42 437.325
DANDE 31 Jan 14:42:04 14:48:56 54° 69° (ENE) 14:54:03 436.750
JAS-2 31 Jan 14:44:52 14:48:40 21° 58° (ENE) 14:52:34 435.910
SO-50 31 Jan 14:56:40 14:59:27 15° 5° (N) 15:02:18 436.795
CUSAT 1 31 Jan 14:58:19 15:04:52 80° 77° (ENE) 15:09:39 437.405
O/OREOS (USA 219) 31 Jan 15:05:46 15:08:15 15° 100° (E) 15:10:55 437.305
Gurwin Techsat 1B 31 Jan 15:09:34 15:14:06 27° 268° (W) 15:18:34 435.225
HORYU 2 31 Jan 15:10:22 15:14:50 59° 259° (W) 15:19:18 437.375
RS-15 31 Jan 15:25:37 15:35:24 34° 252° (WSW) 15:45:13 29.354- 29.394
M-CUBED/EXP-1 PRIME 31 Jan 15:32:14 15:34:48 21° 100° (E) 15:37:28 437.505
STARS 31 Jan 15:41:16 15:45:46 90° 297° (WNW) 15:50:13 437.465
ITAMSAT 1 31 Jan 15:41:19 15:42:46 11° 278° (W) 15:43:55 435.822/435.867
KKS-1 31 Jan 15:53:26 15:57:48 49° 291° (WNW) 16:02:08 437.445
SWISSCUBE 31 Jan 15:59:46 16:02:25 15° 305° (NW) 16:04:55 437.505
AUBIESAT-1 31 Jan 16:02:54 16:06:05 41° 106° (ESE) 16:09:21 437.475
AO-7 31 Jan 16:13:17 16:21:26 52° 260° (W) 16:29:33 29.400- 29.500
MOZHAYETS 4 31 Jan 16:14:31 16:17:32 18° 88° (E) 16:20:41
BEESAT 31 Jan 16:15:44 16:17:34 12° 307° (NW) 16:19:13 436.000
Cubesat XI-IV 31 Jan 16:20:55 16:25:01 24° 59° (ENE) 16:29:14 437.490
ITUPSAT 1 31 Jan 16:21:36 16:23:01 11° 308° (NW) 16:24:14 437.325
DANDE 31 Jan 16:26:13 16:31:53 29° 276° (W) 16:36:16 436.750
JAS-2 31 Jan 16:28:08 16:33:27 67° 258° (WSW) 16:38:38 435.910
